Location: Brno
(49.2000°N, 16.6330°E)
Time: 14:43:19
(UTC+02:00)

Cosmos 332 Rocket - Visible Passes

Search period start: 25 April 2018 00:00
Search period end: 05 May 2018 00:00
Orbit: 683 x 704 km, 74.0° (Epoch: 24 April)

Date Brightness Start Highest point End Pass type
(mag) Time Alt. Az. Time Alt. Az. Time Alt. Az.
25 Apr 6.0 00:46:32 14° E 00:46:32 14° E 00:48:19 10° ENE visible
25 Apr 3.6 02:25:13 74° W 02:25:26 76° WNW 02:30:16 10° NNE visible
25 Apr 6.0 04:04:07 10° WNW 04:06:46 14° NW 04:09:24 10° N visible
26 Apr 4.6 01:26:46 40° E 01:26:46 40° E 01:30:42 10° NE visible
26 Apr 5.0 03:05:27 26° W 03:06:45 30° NW 03:10:59 10° N visible
27 Apr 5.9 00:28:18 16° E 00:28:18 16° E 00:30:13 10° ENE visible
27 Apr 3.7 02:06:58 69° WNW 02:07:07 70° WNW 02:11:56 10° NNE visible
27 Apr 6.0 03:46:08 10° WNW 03:48:31 14° NW 03:50:55 10° NNW visible
28 Apr 4.5 01:08:29 43° E 01:08:29 43° E 01:12:24 10° NE visible
28 Apr 5.1 02:47:09 24° W 02:48:28 27° NW 02:52:36 10° N visible
29 Apr 5.8 00:09:58 17° E 00:09:58 17° E 00:12:05 10° NE visible
29 Apr 3.9 01:48:39 63° WNW 01:48:47 64° WNW 01:53:36 10° NNE visible
29 Apr 6.1 03:28:10 10° WNW 03:30:17 13° NW 03:32:24 10° NNW visible
30 Apr 4.4 00:50:06 47° E 00:50:06 47° E 00:54:08 10° NNE visible
30 Apr 5.3 02:28:46 22° W 02:30:12 26° NW 02:34:13 10° N visible
30 Apr 5.6 23:51:32 18° E 23:51:32 18° E 23:53:55 10° NE visible
01 May 4.0 01:30:12 57° W 01:30:29 58° WNW 01:35:15 10° NNE visible
01 May 6.2 03:10:15 10° WNW 03:12:02 12° NW 03:13:49 10° NNW visible
02 May 4.1 00:31:36 53° E 00:31:36 53° E 00:35:50 10° NNE visible
02 May 5.5 02:10:17 20° W 02:11:55 24° NW 02:15:49 10° N visible
02 May 5.4 23:32:59 21° E 23:32:59 21° E 23:35:44 10° NE visible
03 May 4.2 01:11:39 51° W 01:12:10 53° WNW 01:16:54 10° NNE visible
03 May 6.3 02:52:26 10° WNW 02:53:48 11° NW 02:55:10 10° NNW visible
04 May 3.9 00:12:59 60° E 00:12:59 60° E 00:17:31 10° NNE visible
04 May 5.7 01:51:39 17° W 01:53:39 22° NW 01:57:26 10° N visible
04 May 5.2 23:14:17 23° E 23:14:17 23° E 23:17:32 10° NE visible
